INMARSAT 4-F3

Last updated on Thu Oct 30 2025 00:02:48 GMT+0000 (Coordinated Universal Time)

1 33278U 08039A 25302.45371230 -.00000129 00000+0 00000+0 0 9991 2 33278 4.0990 30.5682 0003088 195.9399 236.8796 1.00271904 44233
UTC large
Height (km)
Speed (km/s)
/
Latitude / Longitude
Inclination (degrees)
Orbital Period (minutes)
Azimuth
Elevation
Range (km)
Doppler Factor

Next 0 passes for location: London (51.5072 / 0.1276)

Sorry there are no passes over London.